Nashville, TN (37227)

8:40 PM CDT on August 27, 2015 (GMT -0500)
Woodland Pointe | | Change Station
CLOSE
Current Station
Personal Weather Station
Location: Nashville, TN
Elevation: 580 ft
Nearby Weather Stations

Elev 580 ft 36.12 °N, 86.62 °W | Updated 1 minute ago

Partly Cloudy
Partly Cloudy
72.0 °F
Feels Like 76 °F
N
0.0
Wind Variable Wind from SE
Gusts 7.0 mph

Today
High -- | Low -- °F
--% Chance of Precip.
Yesterday
High -- | Low -- °F
Precip. -- in
6:14 AM 7:21 PM
Waxing Gibbous, 96% visible
Pressure 30.06 in
Visibility 10.0 miles
Clouds Few 25000 ft
Heat Index 76 °F
Dew Point 59 °F
Humidity 64%
Rainfall Not available.
Snow Depth Not available.
UV 0 out of 12
Pollen 9.30 out of 12
Air Quality Not available.
Flu Activity Not available.
METAR KBNA 280053Z 03007KT 10SM FEW250 23/12 A3008 RMK AO2 SLP180 T02280122
Pressure 30.06 in
Visibility 10.0 miles
Clouds Few 25000 ft
Heat Index 76 °F
Dew Point 59 °F
Humidity 64%
Rainfall Not available.
Snow Depth Not available.
UV 0 out of 12
Pollen 9.30 out of 12
Air Quality Not available.
Flu Activity Not available.
METAR KBNA 280053Z 03007KT 10SM FEW250 23/12 A3008 RMK AO2 SLP180 T02280122

10-Day Weather Forecast

×

Almanac

Astronomy

Aug. 27, 2015 Rise Set
Actual Time
Civil Twilight
Nautical Twilight
Astronomical Twilight
Moon
Length of Visible Light
Length of Day
Tomorrow will be .
, % of the Moon is Illuminated

Today's Extremes

State Highs State Lows

Community

WunderPhotos

Upload Photos

1,850,296 photos uploaded!

WunderBlogs® & News

Nearby

Air Quality

  Air Quality AQ Index Pollutant
Not available.

Snow Depth

Station Depth Elevation

Earthquake Activity

City Distance Mag. Time & Date
Minimum magnitude displayed is 2.5.

Coastal Water Temperatures

Place Temperature

Stations

Nearby Weather Stations

Station Location Temp. Windchill Dew Point Humidity Wind Precip. Elev Updated Type